Regional Weather Roundup
Issued by NWS Cleveland, OH

Home | Current Version | Previous Version | Graphics & Text | Print | Product List | Glossary On
Versions: 1 2 3 4 5 6 7 8 9 10 11 12 13 14 15 16 17 18 19 20 21 22 23 24 25 26 27 28 29 30 31 32 33 34 35 36 37 38 39 40 41 42 43 44 45 46 47 48 49 50
000
ASUS41 KCLE 282002
RWRCLE
OHIO REGIONAL WEATHER ROUNDUP
NATIONAL WEATHER SERVICE CLEVELAND, OH
400 PM EDT SAT MAR 28 2015

NOTE: "FAIR" INDICATES FEW OR NO CLOUDS BELOW 12,000 FEET WITH NO
SIGNIFICANT WEATHER AND/OR OBSTRUCTIONS TO VISIBILITY.

OHZ001>008-015>018-024>027-034-035-043-044-282100-
   NORTHWEST OHIO

CITY           SKY/WX    TMP DP  RH WIND       PRES   REMARKS
DEFIANCE       SUNNY     34  10  37 CALM      30.28F
FINDLAY        MOSUNNY   32  10  40 NW5       30.27F WCI  27
TOLEDO EXPRESS SUNNY     33  10  38 N6        30.27F WCI  28
TOLEDO EXEC    PTSUNNY   33   9  36 SW7       30.28F WCI  27
LIMA           MOSUNNY   32  15  49 N9        30.27F WCI  24
$$

OHZ009>014-019>023-028>033-038-089-282100-
   NORTHEAST OHIO

CITY           SKY/WX    TMP DP  RH WIND       PRES   REMARKS
CLE-HOPKINS    MOSUNNY   27  11  51 NW17G26   30.29S WCI  14
CLE-LAKEFRONT  MOSUNNY   27  10  49 N8        30.27S WCI  19
CUY CO. ARPT   MOSUNNY   27  10  50 N14G21    30.25F WCI  15
LORAIN-ELYRIA  CLOUDY    24  14  65 N15       30.28S WCI  11
ASHTABULA      SUNNY     24   8  50 N15       30.22S WCI  11
AKRON-CANTON   MOSUNNY   29  10  45 N13G21    30.19S WCI  19
WOOSTER        SUNNY     25  12  58 N13       30.23S WCI  14
MANSFIELD      MOSUNNY   25  11  55 N12       30.24S WCI  14
YOUNGSTOWN     MOSUNNY   26   7  44 NW16G24   30.18R WCI  14
$$

OHZ042-051>053-060>062-070>072-077>081-282100-
  SOUTHWEST OHIO

CITY           SKY/WX    TMP DP  RH WIND       PRES   REMARKS
CINC-COVINGTON MOSUNNY   36  12  37 NW8       30.26F
CINC-LUNKEN    SUNNY     36  10  34 NW9       30.30F
HAMILTON       SUNNY     36  14  40 MISG      30.30F
DAYTON         MOSUNNY   33  13  43 N12       30.27F WCI  24
WRIGHT-PAT AFB MOSUNNY   33  11  39 N8        30.27F WCI  26
DAYTON GENERAL SUNNY     34  12  40 MISG      30.26F
WILMINGTON     MOSUNNY   31  11  43 VRB5      30.25F WCI  26
$$

OHZ036-037-039>041-045>050-054>059-063>069-073>076-082>088-282100-
  CENTRAL AND SOUTHEAST OHIO

CITY           SKY/WX    TMP DP  RH WIND       PRES   REMARKS
COLUMBUS       MOSUNNY   31  12  45 N13G20    30.26S WCI  21
OSU AIRPORT    MOSUNNY   30   9  41 VRB7      30.26S WCI  23
BOLTON FIELD   MOSUNNY   30  12  47 NW10      30.27R WCI  21
RICKENBACK AFB NOT AVBL
NEWARK         PTSUNNY   30  14  51 NW12      30.25R WCI  20
MARION         PTSUNNY   30  11  45 N12       30.27S WCI  20
LANCASTER      PTSUNNY   33  14  45 NW12G18   30.26S WCI  24
ZANESVILLE     PTSUNNY   29  11  47 N10       30.22F WCI  20
NEW PHILLY     SUNNY     31  10  41 NW14G23   30.22R WCI  21
$$



USA.gov is the U.S. government's official web portal to all federal, state and local government web resources and services.